User: anonymous
Location: Fort Wayne
(41.1310°N, 85.1290°W)
Time: 12:15:14
(UTC-04:00)
Language:

MetOp-A - Orbit

View from above orbital plane
View from above orbital plane
View from above satellite
View from above satellite

Ground track
Ground track

The orbit data is extracted from the following two-line orbital elements,

1 29499U 06044A   14264.14487271  .00000114  00000-0  72217-4 0  4688
2 29499 098.7152 322.5285 0001174 171.3565 242.6900 14.21491408411064
Epoch (UTC): 21 September 2014 03:28:37
Eccentricity: 0.0001174
inclination: 98.7152°
perigee height: 819 km
apogee height: 821 km
right ascension of ascending node: 322.5285°
argument of perigee: 171.3565°
revolutions per day: 14.21491408
mean anomaly at epoch: 242.6900°
orbit number at epoch: 41106

The dashed part of the orbit path shows where the satellite is in the earth's shadow,  

DLR